contact:dominique.lefevre@mio.osupytheas.fr, maurice.libes@osupytheas.fr
Project:EMSO Ligure-ouest http://www.emso-fr.org/EMSO-France
Sensor Aquadopp, line 13 Serial AQD14315 
DOI : "https://doi.org/10.17882/74513; https://doi.org/10.17882/83244" 
Title:EMSO Ligure Ouest : Data ligne ALBATROSS capteur AQUADOPP - deploiement 2021
Id,Date,Profondeur,Latitude,Longitude,X_East,Y_North,Z_Up,Amplitude_X,Amplitude_Y,Amplitude_Z,Batterie,SoundSpeed,Heading,Pitch,Roll,Pressure,Temperature,Speed,Direction
, , m, degrees North, degrees East, m.s-1, m.s-1,m.s-1, 1, 1, 1, Volt, m.s-1, degree, degree, degree, dbar, degree_C, m.s-1, degree
07,2022-09-10T23:30:00,1500.0,42.79,6.0312,0.009,-0.011,-0.008,45.0,48.0,45.0,12.9,1504.0,32.8,0.2,1.0,1474.996,13.11,0.014,140.7
07,2022-09-11T00:00:00,1500.0,42.79,6.0312,0.008,-0.012,0.001,42.0,47.0,47.0,12.9,1504.0,46.4,0.2,0.9,1474.985,13.11,0.014,146.3
07,2022-09-11T00:30:00,1500.0,42.79,6.0312,0.004,-0.004,0.002,46.0,46.0,44.0,12.9,1504.1,93.8,0.2,0.8,1474.968,13.12,0.005,135.0
07,2022-09-11T01:00:00,1500.0,42.79,6.0312,-0.001,0.0,0.003,45.0,51.0,49.0,12.9,1504.1,153.3,0.1,0.9,1474.934,13.12,0.001,270.0
07,2022-09-11T01:30:00,1500.0,42.79,6.0312,0.0,-0.006,0.006,46.0,56.0,56.0,12.9,1504.1,195.4,0.1,1.1,1474.903,13.12,0.006,180.0
07,2022-09-11T02:00:00,1500.0,42.79,6.0312,0.0,0.0,0.006,47.0,45.0,46.0,12.9,1504.1,213.1,-0.1,0.7,1474.925,13.12,0.0,0.0
07,2022-09-11T02:30:00,1500.0,42.79,6.0312,0.007,-0.005,-0.012,49.0,45.0,49.0,12.9,1504.0,225.4,-0.1,0.9,1474.898,13.11,0.008,125.5
07,2022-09-11T03:00:00,1500.0,42.79,6.0312,0.006,0.005,-0.008,50.0,46.0,49.0,12.9,1504.0,231.9,0.1,0.9,1474.909,13.11,0.007,50.2
07,2022-09-11T03:30:00,1500.0,42.79,6.0312,0.012,0.006,0.003,49.0,47.0,45.0,12.9,1504.0,239.6,0.1,0.8,1474.916,13.11,0.013,63.4
07,2022-09-11T04:00:00,1500.0,42.79,6.0312,0.007,0.004,0.007,51.0,45.0,44.0,12.9,1504.0,247.2,-0.1,0.7,1474.937,13.11,0.008,60.3
07,2022-09-11T04:30:00,1500.0,42.79,6.0312,0.001,-0.009,0.009,42.0,45.0,47.0,12.9,1504.0,249.6,0.2,1.0,1474.963,13.11,0.009,173.7
07,2022-09-11T05:00:00,1500.0,42.79,6.0312,0.003,-0.004,0.0,53.0,45.0,54.0,12.9,1504.0,256.1,0.1,0.8,1474.988,13.11,0.005,143.1
07,2022-09-11T05:30:00,1500.0,42.79,6.0312,0.005,-0.001,0.011,45.0,43.0,45.0,12.9,1504.0,258.8,0.2,1.1,1475.008,13.11,0.005,101.3
07,2022-09-11T06:00:00,1500.0,42.79,6.0312,0.005,0.003,0.0,42.0,43.0,44.0,12.9,1504.0,264.8,0.2,0.9,1475.037,13.11,0.005,59.0
07,2022-09-11T06:30:00,1500.0,42.79,6.0312,0.002,-0.008,0.002,41.0,47.0,48.0,12.9,1504.0,272.2,0.2,1.0,1475.055,13.11,0.008,166.0
07,2022-09-11T07:00:00,1500.0,42.79,6.0312,0.006,0.001,0.0,47.0,52.0,43.0,12.9,1504.0,276.5,0.2,0.9,1475.069,13.11,0.006,80.5
07,2022-09-11T07:30:00,1500.0,42.79,6.0312,0.003,0.003,-0.002,43.0,42.0,45.0,12.9,1504.0,280.0,0.0,0.8,1475.097,13.11,0.004,45.0
07,2022-09-11T08:00:00,1500.0,42.79,6.0312,0.0,0.011,0.007,49.0,46.0,53.0,12.9,1504.0,283.9,0.1,0.7,1475.085,13.11,0.011,0.0
07,2022-09-11T08:30:00,1500.0,42.79,6.0312,-0.001,0.013,0.007,44.0,43.0,45.0,12.9,1504.0,287.9,-0.2,0.7,1475.031,13.11,0.013,355.6
07,2022-09-11T09:00:00,1500.0,42.79,6.0312,0.013,0.004,0.02,51.0,47.0,50.0,12.9,1504.0,295.5,0.2,0.8,1475.042,13.11,0.013,72.9
07,2022-09-11T09:30:00,1500.0,42.79,6.0312,0.022,0.021,0.014,44.0,46.0,45.0,12.9,1504.0,299.9,-0.1,1.0,1475.049,13.11,0.03,46.3
07,2022-09-11T10:00:00,1500.0,42.79,6.0312,0.01,0.015,0.003,52.0,46.0,44.0,12.9,1504.0,303.9,0.1,0.8,1475.043,13.11,0.018,33.7
07,2022-09-11T10:30:00,1500.0,42.79,6.0312,0.007,0.006,0.009,44.0,45.0,47.0,12.9,1504.0,309.7,-0.2,0.7,1475.004,13.11,0.009,49.4
07,2022-09-11T11:00:00,1500.0,42.79,6.0312,-0.004,0.017,0.006,45.0,45.0,47.0,12.9,1504.0,316.5,0.1,0.7,1474.948,13.11,0.017,346.8
07,2022-09-11T11:30:00,1500.0,42.79,6.0312,0.003,0.0,0.007,43.0,47.0,44.0,12.9,1504.0,322.4,0.1,1.0,1474.97,13.11,0.003,90.0
07,2022-09-11T12:00:00,1500.0,42.79,6.0312,0.012,0.012,-0.006,44.0,50.0,49.0,12.9,1504.0,326.2,0.1,0.8,1474.953,13.11,0.016,45.0
07,2022-09-11T12:30:00,1500.0,42.79,6.0312,0.01,0.013,0.012,45.0,49.0,45.0,12.9,1504.0,330.2,0.2,1.0,1474.935,13.11,0.016,37.6
07,2022-09-11T13:00:00,1500.0,42.79,6.0312,0.012,0.007,-0.008,48.0,49.0,45.0,12.9,1504.0,329.8,0.1,1.0,1474.9,13.11,0.013,59.7
07,2022-09-11T13:30:00,1500.0,42.79,6.0312,0.017,0.004,-0.003,44.0,48.0,44.0,12.9,1504.0,333.7,0.0,0.8,1474.936,13.11,0.017,76.8
07,2022-09-11T14:00:00,1500.0,42.79,6.0312,0.019,0.008,-0.003,46.0,46.0,42.0,12.9,1504.0,340.3,0.2,0.7,1474.898,13.11,0.02,67.2
07,2022-09-11T14:30:00,1500.0,42.79,6.0312,0.02,0.0,0.004,44.0,48.0,44.0,12.9,1504.1,348.9,-0.2,1.1,1474.837,13.12,0.02,90.0
07,2022-09-11T15:00:00,1500.0,42.79,6.0312,0.017,0.015,0.006,44.0,47.0,48.0,12.9,1504.0,354.8,-0.1,0.7,1474.886,13.11,0.022,48.6
07,2022-09-11T15:30:00,1500.0,42.79,6.0312,0.021,0.01,-0.006,46.0,47.0,51.0,12.9,1504.1,6.3,-0.1,0.7,1474.915,13.12,0.023,64.5
07,2022-09-11T16:00:00,1500.0,42.79,6.0312,0.013,0.0,0.004,48.0,49.0,47.0,12.9,1504.0,14.6,-0.1,0.7,1474.937,13.11,0.013,90.0
07,2022-09-11T16:30:00,1500.0,42.79,6.0312,0.02,-0.001,0.002,44.0,50.0,47.0,12.9,1504.0,22.9,-0.1,0.9,1474.957,13.11,0.02,92.9
07,2022-09-11T17:00:00,1500.0,42.79,6.0312,0.017,-0.003,-0.004,43.0,49.0,45.0,12.9,1504.0,24.8,0.0,1.1,1474.978,13.11,0.017,100.0
07,2022-09-11T17:30:00,1500.0,42.79,6.0312,0.009,-0.002,0.004,46.0,48.0,44.0,12.9,1504.0,22.6,0.2,0.8,1475.0,13.11,0.009,102.5
07,2022-09-11T18:00:00,1500.0,42.79,6.0312,0.02,-0.011,0.004,48.0,44.0,44.0,12.9,1504.0,33.9,0.2,1.0,1475.067,13.11,0.022,118.8
07,2022-09-11T18:30:00,1500.0,42.79,6.0312,0.02,-0.012,0.018,46.0,46.0,45.0,12.9,1504.0,40.9,-0.2,0.8,1475.085,13.11,0.023,121.0
07,2022-09-11T19:00:00,1500.0,42.79,6.0312,0.011,-0.001,-0.01,46.0,48.0,49.0,12.9,1504.0,49.9,0.0,0.7,1475.133,13.11,0.011,95.2
07,2022-09-11T19:30:00,1500.0,42.79,6.0312,0.018,-0.002,-0.018,48.0,51.0,43.0,12.9,1504.0,65.0,0.1,1.1,1475.151,13.11,0.018,96.3
07,2022-09-11T20:00:00,1500.0,42.79,6.0312,0.006,-0.011,-0.004,45.0,49.0,52.0,12.9,1504.0,69.5,0.1,0.8,1475.167,13.11,0.012,151.4
07,2022-09-11T20:30:00,1500.0,42.79,6.0312,0.006,-0.01,-0.006,46.0,47.0,55.0,12.9,1504.1,145.6,0.0,0.9,1475.138,13.12,0.011,149.0
07,2022-09-11T21:00:00,1500.0,42.79,6.0312,-0.004,-0.009,0.006,47.0,48.0,47.0,12.9,1504.1,177.4,-0.1,0.8,1475.118,13.12,0.009,204.0
07,2022-09-11T21:30:00,1500.0,42.79,6.0312,0.005,-0.009,-0.002,51.0,45.0,45.0,12.9,1504.0,198.5,0.2,1.0,1475.13,13.11,0.01,150.9
07,2022-09-11T22:00:00,1500.0,42.79,6.0312,-0.002,-0.011,-0.002,43.0,43.0,44.0,12.9,1504.0,210.1,0.1,0.9,1475.096,13.11,0.011,190.3
07,2022-09-11T22:30:00,1500.0,42.79,6.0312,-0.001,-0.012,-0.005,49.0,47.0,42.0,12.9,1504.0,219.0,-0.1,0.7,1475.107,13.11,0.012,184.8
07,2022-09-11T23:00:00,1500.0,42.79,6.0312,-0.005,-0.01,0.001,46.0,50.0,58.0,12.9,1504.0,228.8,0.1,0.8,1475.046,13.11,0.011,206.6
